Location: Great Falls
(47.5000°N, 111.3000°W)
Time: 12:33:52
(UTC-07:00)

ISS - Visible Passes

Search period start: 27 February 2021 00:00
Search period end: 09 March 2021 00:00
Orbit: 417 x 422 km, 51.6° (Epoch: 27 February)

Date Brightness Start Highest point End Pass type
(mag) Time Alt. Az. Time Alt. Az. Time Alt. Az.
27 Feb -1.6 04:36:55 28° ENE 04:36:55 28° ENE 04:38:38 10° ENE visible
27 Feb -3.0 06:09:52 16° WNW 06:12:15 42° N 06:15:30 10° ENE visible
28 Feb -3.4 05:24:15 45° NW 05:24:42 49° NNW 05:28:00 10° ENE visible
01 Mar -1.9 04:38:36 30° NE 04:38:36 30° NE 04:40:32 10° ENE visible
01 Mar -2.8 06:11:34 13° WNW 06:14:21 39° N 06:17:32 10° ENE visible
02 Mar -0.2 03:52:56 11° ENE 03:52:56 11° ENE 03:53:03 10° ENE visible
02 Mar -2.8 05:25:54 32° NW 05:26:46 39° N 05:29:58 10° ENE visible
03 Mar -2.1 04:40:13 32° NE 04:40:13 32° NE 04:42:26 10° ENE visible
03 Mar -3.0 06:13:11 10° WNW 06:16:24 46° N 06:19:40 10° E visible
04 Mar -0.4 03:54:32 13° ENE 03:54:32 13° ENE 03:54:55 10° ENE visible
04 Mar -2.8 05:27:29 27° NW 05:28:49 41° N 05:32:02 10° E visible
05 Mar -2.3 04:41:49 35° NNE 04:41:49 35° NNE 04:44:26 10° ENE visible
05 Mar -3.6 06:15:00 10° WNW 06:18:21 73° NNE 06:21:43 10° ESE visible
06 Mar -0.6 03:56:10 15° ENE 03:56:10 15° ENE 03:56:50 10° ENE visible
06 Mar -3.3 05:29:07 25° NW 05:30:49 56° NNE 05:34:08 10° E visible
07 Mar -2.8 04:43:31 45° NNE 04:43:31 45° NNE 04:46:31 10° E visible
07 Mar -3.5 06:16:50 10° WNW 06:20:09 55° SSW 06:23:26 10° SE visible
08 Mar -0.8 03:57:58 17° ENE 03:57:58 17° ENE 03:58:52 10° E visible
08 Mar -3.9 05:30:56 26° WNW 05:32:41 82° SSW 05:36:02 10° ESE visible
